User: anonymous   Login
Location: Melbourne
(37.8170°S, 144.9670°E)
Time: 19:23:06
(UTC+10:00)
Language:

Aureole 2 Rocket - Orbit

View from above orbital plane
View from above orbital plane
View from above satellite
View from above satellite

Ground track
Ground track

The orbit data is extracted from the following two-line orbital elements,

1  7004U 73107B   17265.91992488 +.00014997 +00000-0 +21585-3 0  9994
2  7004 073.9339 210.5423 0167219 055.0155 306.6621 15.41368301252275
Epoch (UTC): 22 September 2017 22:04:41
Eccentricity: 0.0167219
inclination: 73.9339°
perigee height: 328 km
apogee height: 556 km
right ascension of ascending node: 210.5423°
argument of perigee: 55.0155°
revolutions per day: 15.41368301
mean anomaly at epoch: 306.6621°
orbit number at epoch: 25227

The dashed part of the orbit path shows where the satellite is in the earth's shadow,  

DLR